Volver al catálogo

STARLINK-31147

ActivoComunicacionesVLEO
NORAD 58681·PAYLOAD·🇺🇸 United States

Lanzado Dec 29, 2023 desde Cape Canaveral Space Force Station

Loading…

Próximos Pases (próximas 24 horas)

TLE

ActualizadoSource: CelesTrak SupGP

Época: Sep 15, 2026, 02:45 UTC

1 58681C 23211Q   26258.11506944  .00014599  00000+0  52869-3 0  2588
2 58681  42.9999  95.6466 0001362 270.2956  71.5014 15.27576107    11

Sigue STARLINK-31147 en tiempo real con AllMySat

Download on the App Store